Regional Weather Roundup
Issued by NWS

Home | Current Version | Previous Version | Graphics & Text | Print | Product List | Glossary On
Versions: 1 2 3 4 5 6 7 8 9 10 11 12 13 14 15 16 17 18 19 20 21 22 23 24 25 26 27 28 29 30 31 32 33 34 35 36 37 38 39 40 41 42 43 44 45 46 47 48 49 50
000
ASUS43 KMKX 251121
RWRWI

WISCONSIN REGIONAL WEATHER ROUNDUP
NATIONAL WEATHER SERVICE MILWAUKEE/SULLIVAN WI
600 AM CDT SAT OCT 25 2014

NOTE: "FAIR" INDICATES FEW OR NO CLOUDS BELOW 12,000 FEET WITH NO
SIGNIFICANT WEATHER AND/OR OBSTRUCTIONS TO VISIBILITY.

WIZ001-002-006>008-014>016-023>028-251200-
NORTHWEST WISCONSIN

CITY           SKY/WX    TMP DP  RH WIND       PRES   REMARKS
SUPERIOR ARPT  CLEAR     47  35  63 W8        29.87R
ASHLAND        CLEAR     48  36  63 SW8       29.83R
HAYWARD        CLEAR     51  34  52 W6        29.88R
SIREN          CLEAR     48  34  58 W8        29.92S
CUMBERLAND     CLEAR     46  34  61 W10       29.91S
RICE LAKE      CLEAR     46  37  69 W3        29.92R
CHETEK         CLEAR     49  38  64 W6        29.91R
LADYSMITH      CLEAR     50  38  62 W9        29.90R
EAU CLAIRE     CLEAR     45  40  82 SW6       29.92R
MENOMONIE      CLEAR     51  37  60 W7        29.93S
NEW RICHMOND   CLEAR     49  36  59 W7        29.95S
OSCEOLA        CLEAR     52  36  53 W12       29.97S
$$

WIZ003>005-009-010-017-018-251200-
NORTH CENTRAL WISCONSIN

CITY           SKY/WX    TMP DP  RH WIND       PRES   REMARKS
MANITOWISH WTR CLEAR     46  40  79 W6        29.81R
ARBOR VITAE    CLEAR     52  42  69 W8        29.81S
WOODRUFF       CLEAR     52  42  69 W8        29.81S
RHINELANDER    CLEAR     46  39  76 W10       29.82S
EAGLE RIVER    CLEAR     49  37  65 W9        29.79S
LAND O LAKES   CLEAR     48  41  79 W6        29.79S
PHILLIPS       CLEAR     45  41  86 W5        29.86R
TOMAHAWK       CLEAR     46  40  77 W6        29.84S
MEDFORD        CLEAR     46  41  82 W7        29.87R
MERRILL        CLEAR     47  44  88 W7        29.85R
$$

WIZ029-030-035-036-043>047-251200-
CENTRAL WISCONSIN

CITY           SKY/WX    TMP DP  RH WIND       PRES   REMARKS
WAUSAU         CLEAR     50  47  89 W10       29.84R
MOSINEE        CLEAR     48  48 100 W10       29.87R
MARSHFIELD     CLEAR     50  45  83 W9        29.88R
STEVENS POINT  CLEAR     50  46  87 W8        29.87R
WAUPACA        CLEAR     54  52  94 W6        29.85S
WAUTOMA        CLOUDY    53  51  93 W7        29.88R
WISC RAPIDS    CLEAR     51  48  89 W7        29.89R
CAMP DOUGLAS   NOT AVBL
$$

WIZ011>013-019>022-031-037>040-048>050-251200-
NORTHEAST WISCONSIN

CITY           SKY/WX    TMP DP  RH WIND       PRES   REMARKS
ANTIGO         CLEAR     48  45  88 W9        29.83R
SHAWANO        CLEAR     54  51  89 SW5       29.82R
OCONTO         CLEAR     53  53 100 W8        29.79R
STURGEON BAY   CLEAR     54  50  87 W12       29.79R
GREEN BAY      CLEAR     54  52  93 W10       29.82R FOG
MANITOWOC      PTCLDY    56  53  90 W10       29.82R
APPLETON       PTCLDY    52  52 100 W9        29.84R FOG
CLINTONVILLE   CLEAR     52  50  93 W7        29.82S
OSHKOSH        CLEAR     54  53  97 W7        29.84S FOG
$$

WIZ032>034-041-042-053>061-251200-
SOUTHWEST WISCONSIN

CITY           SKY/WX    TMP DP  RH WIND       PRES   REMARKS
LA CROSSE      FOG       46  45  96 CALM      29.94R VSB 1/4
SPARTA         CLEAR     43  43 100 W3        29.93R FOG
VIROQUA        CLEAR     51  51  99 W6        29.94R
BOSCOBEL       FOG       54  52  93 SW3       29.94R VSB 1/4
PRAIRIE DU CHI CLEAR     52  49  90 W5        29.95R
PLATTEVILLE    CLEAR     54  53  97 CALM      29.95R
$$

WIZ056-057-062-063-064-067-068-251200-
SOUTH CENTRAL WISCONSIN

CITY           SKY/WX    TMP DP  RH WIND       PRES   REMARKS
REEDSBURG      CLEAR     53  50  90 CALM      29.91R
BARABOO/DELLS  CLEAR     53  49  85 W5        29.90R
LONE ROCK      FOG       57  53  86 W6        29.93R VSB 1/4
MINERAL POINT  FOG       54  54 100 W6        29.93S VSB 1/2
MADISON        CLEAR     56  53  90 VRB7      29.90R
MIDDLETON      CLEAR     55  55  99 W7        29.91S
WATERTOWN      CLEAR     51  51 100 CALM      29.88S FOG
MONROE         CLEAR     55  54  94 W13       29.92R FOG
JANESVILLE     CLEAR     55  54  94 W7        29.91R FOG
$$

WIZ051-052-058>065-066-070>072-251200-
SOUTHEAST WISCONSIN

CITY           SKY/WX    TMP DP  RH WIND       PRES   REMARKS
MILWAUKEE      PTCLDY    56  52  86 W10       29.88R
WAUKESHA       PTCLDY    54  52  94 W9        29.89S FOG
MILWAUKEE/TIMM PTCLDY    54  52  94 W7        29.87R FOG
RACINE         CLEAR     56  52  86 W8        29.88R FOG
BURLINGTON     CLEAR     52  52 100 W5        29.89R FOG
KENOSHA        CLEAR     55  53  93 W10       29.87F FOG
FOND DU LAC    CLEAR     55  52  89 W7        29.86R
SHEBOYGAN      PTCLDY    55  52  89 W10       29.84R
WEST BEND      PTCLDY    54  50  87 W6        29.86S FOG
JUNEAU         PTCLDY    52  52 100 W7        29.89S FOG
$$

LSZ147-162-251200-
LAKE SUPERIOR

STATION/POSITION TIME  TEMP    WIND        PRES    WAVE
                       AIR SEA DIR/SP/G            HT/PER
                 (UTC) (F)     (DEG/KT/KT) (MB)    (FT/S)
W MID LAKE BUOY  1050   51 46  260/ 21/ 25 1005.7R   4/ 5
DEVILS ISLAND    1100   53     270/ 26/ 30 1008.7R
PORT WING        1040   54     250/ 13/ 18 1010.5R
SAXON HARBOR     1040   55     230/  6/ 13 1009.5R
$$

LMZ867-665-643>646-251200-
LAKE MICHIGAN

STATION/POSITION TIME  TEMP    WIND        PRES    WAVE
                       AIR SEA DIR/SP/G            HT/PER
                 (UTC) (F)     (DEG/KT/KT) (MB)    (FT/S)
CHAMBERS ISLAND  1000   53     210/  4/ 10 1007.8S
N MID LAKE BUOY  1050   54 51  260/ 17/ 19 1006.1F   4/ 5
NORTHPORT PIER   1000   55     270/  7/ 13 1007.1R
SISTER BAY       1043          250/ 12/ 14   N/A
ALGOMA LAKESHORE 0841          280/  7/ 10   N/A
KEWAUNEE LAKESHO 1100   56     290/  8/ 11 1008.1R
SHEBOYGAN LAKESH 1100   56 51  270/ 13/ 16 1010.3S
PORT WASHINGTON  1000   57     280/  9/ 15 1011.2R
ATWATER BUOY     1100   56     250/ 14/ 17 1012.1R
MILWAUKEE LAKESH 1100   57     280/ 11/ 14   N/A
S MID LAKE BUOY  1050   55 54  270/ 17/ 21 1011.4R   1/ 3
KENOSHA   LAKESH 1100   57     260/ 11/ 15 1011.5S
$$

TC  - TEMPERATURE IN CELSIUS
VSB - VISIBILITY IN STATUTE MILES
WCI - WIND CHILL INDEX
HX  - HEAT INDEX




USA.gov is the U.S. government's official web portal to all federal, state and local government web resources and services.